K5RLH Weather Reports


time (UTC)temp
F
wind
direction
speed
knots
gust
knots
rain 1hr
in
rain 24hr
in
rain mn
in
humidity
%
barometer
mb
20260505083815 56 3 11.3 13.9 0.00 0.00 0.01 7 1008.0
20260505083313 56 8 13.9 20.0 0.00 0.00 0.01 7 1008.0
20260505082813 56 23 10.4 14.8 0.00 0.00 0.01 7 1008.0
20260505082317 56 24 7.8 10.4 0.00 0.00 0.01 7 1008.0
20260505081813 56 29 10.4 13.0 0.00 0.00 0.01 7 1008.0
20260505081315 56 7 9.6 13.0 0.00 0.00 0.01 7 1008.0
20260505080813 56 12 7.0 9.6 0.00 0.00 0.01 7 1009.0
20260505080313 56 0 7.8 12.2 0.00 0.00 0.01 7 1008.0
20260505075815 56 14 8.7 11.3 0.00 0.00 0.01 7 1009.0
20260505075313 56 7 7.8 9.6 0.00 0.00 0.01 7 1009.0
20260505074816 56 7 7.0 11.3 0.00 0.00 0.01 7 1009.0
20260505074313 56 38 4.3 7.0 0.00 0.00 0.01 7 1009.0
20260505073813 57 15 7.0 9.6 0.00 0.00 0.01 7 1009.0
20260505073314 57 12 9.6 12.2 0.00 0.00 0.01 7 1009.0
20260505072813 57 12 6.1 9.6 0.00 0.00 0.01 7 1009.0
20260505072313 57 12 10.4 13.9 0.00 0.00 0.01 7 1009.0
20260505071813 57 18 9.6 12.2 0.00 0.00 0.01 7 1009.0
20260505071316 57 5 7.8 8.7 0.00 0.00 0.01 7 1009.0
20260505070815 57 6 11.3 13.9 0.00 0.00 0.01 7 1009.0
20260505070313 58 28 7.8 11.3 0.00 0.00 0.01 7 1009.0
20260505065814 58 22 11.3 16.5 0.00 0.00 0.01 7 1009.0
20260505065313 58 24 11.3 16.5 0.00 0.00 0.01 7 1009.0
20260505064815 58 10 11.3 13.9 0.00 0.00 0.01 7 1009.0
20260505064314 58 14 13.0 16.5 0.00 0.00 0.01 7 1009.0
20260505063813 58 10 12.2 13.9 0.00 0.00 0.01 7 1009.0
20260505063314 58 7 11.3 13.0 0.00 0.00 0.01 7 1009.0
20260505062815 58 7 11.3 16.5 0.00 0.00 0.01 7 1009.0
20260505062314 58 5 12.2 16.5 0.00 0.00 0.01 7 1008.0
20260505061813 58 10 16.5 21.7 0.01 0.00 0.01 7 1008.0
20260505061313 58 7 15.6 20.9 0.00 0.00 0.00 7 1008.0
20260505060333 59 7 16.5 20.9 0.00 0.00 0.01 7 1008.0
20260505055814 59 16 18.2 23.5 0.00 0.00 0.01 7 1008.0
20260505055313 60 23 17.4 23.5 0.00 0.00 0.01 7 1008.0
20260505054814 60 36 13.0 17.4 0.04 0.00 0.00 7 1008.0
20260505054313 60 22 8.7 11.3 0.00 0.00 0.00 7 1007.0
20260505053813 60 21 11.3 19.1 0.00 0.00 0.00 7 1007.0
20260505053315 61 7 15.6 21.7 0.00 0.00 0.00 7 1007.0
20260505052813 61 355 7.8 13.0 0.00 0.00 0.00 7 1007.0
20260505052313 62 304 11.3 14.8 0.00 0.00 0.00 7 1007.0
20260505051813 62 283 12.2 16.5 0.00 0.00 0.01 7 1006.0
20260505051313 62 284 11.3 13.9 0.00 0.00 0.00 7 1007.0
20260505050815 63 284 12.2 15.6 0.00 0.00 0.00 7 1006.0
20260505050314 63 284 12.2 14.8 0.14 0.00 0.00 7 1006.0
20260505041313 67 282 11.3 14.8 0.00 0.00 0.00 7 1005.0
20260505040813 67 278 11.3 18.2 0.00 0.00 0.00 7 1006.0
20260505040314 68 283 13.0 16.5 0.00 0.00 0.00 7 1006.0
20260505035813 68 283 13.0 16.5 0.00 0.00 0.00 7 1006.0
20260505035314 68 282 13.9 15.6 0.00 0.00 0.00 7 1005.0
20260505034814 69 284 11.3 16.5 0.00 0.00 0.00 7 1005.0
20260505034313 69 308 9.6 16.5 0.00 0.00 0.00 7 1005.0
20260505033813 69 3 12.2 16.5 0.00 0.00 0.00 7 1005.0
20260505033314 70 336 10.4 14.8 0.00 0.00 0.00 7 1005.0
20260505032813 70 317 9.6 13.0 0.00 0.00 0.00 7 1005.0
20260505032313 71 318 7.8 10.4 0.00 0.00 0.00 7 1005.0
20260505031813 71 328 8.7 11.3 0.00 0.00 0.00 7 1005.0
20260505031314 71 347 8.7 13.0 0.00 0.00 0.00 7 1004.0
20260505030814 71 348 10.4 16.5 0.00 0.00 0.00 7 1004.0
20260505030313 72 348 8.7 11.3 0.00 0.00 0.00 7 1004.0
20260505025814 72 313 7.8 9.6 0.00 0.00 0.00 7 1004.0
20260505025313 72 356 7.0 10.4 0.00 0.00 0.00 7 1004.0
20260505024813 73 348 8.7 12.2 0.00 0.00 0.00 7 1004.0
20260505024315 73 348 7.8 9.6 0.00 0.00 0.00 7 1004.0
20260505023813 73 354 6.1 11.3 0.00 0.00 0.00 7 1004.0
20260505023313 73 3 13.9 16.5 0.00 0.00 0.00 7 1004.0
20260505022813 73 4 13.0 15.6 0.00 0.00 0.00 7 1004.0
20260505022313 72 4 13.0 16.5 0.00 0.00 0.00 7 1004.0
20260505021813 71 4 13.0 16.5 0.00 0.00 0.00 7 1003.0
20260505021313 71 5 13.0 17.4 0.00 0.00 0.00 7 1003.0
20260505020813 71 340 7.0 11.3 0.00 0.00 0.00 7 1003.0
20260505020313 72 350 4.3 7.0 0.00 0.00 0.00 7 1003.0
20260505015813 73 45 2.6 3.5 0.00 0.00 0.00 7 1003.0
20260505015313 74 232 1.7 2.6 0.00 0.00 0.00 7 1003.0
20260505014813 74 218 1.7 4.3 0.00 0.00 0.00 7 1002.0
20260505014314 74 192 1.7 2.6 0.00 0.00 0.00 7 1002.0
20260505013813 74 200 1.7 5.2 0.00 0.00 0.00 7 1002.0
20260505013313 74 182 1.7 2.6 0.00 0.00 0.00 7 1002.0
20260505012815 74 203 2.6 3.5 0.00 0.00 0.00 7 1002.0
20260505012313 74 224 3.5 7.8 0.00 0.00 0.00 7 1002.0
20260505011813 75 214 4.3 5.2 0.00 0.00 0.00 7 1002.0
20260505011313 75 208 4.3 5.2 0.00 0.00 0.00 7 1002.0
20260505010813 75 172 3.5 5.2 0.00 0.00 0.00 7 1002.0
20260505010313 75 179 3.5 4.3 0.00 0.00 0.00 7 1002.0
20260505005813 75 212 3.5 5.2 0.00 0.00 0.00 7 1002.0
20260505005314 76 215 4.3 7.0 0.00 0.00 0.00 7 1002.0
20260505004813 76 226 2.6 4.3 0.00 0.00 0.00 7 1002.0
20260505004313 76 256 2.6 4.3 0.00 0.00 0.00 7 1002.0
20260505003815 77 261 1.7 1.7 0.00 0.00 0.00 7 1002.0
20260505003313 77 242 1.7 3.5 0.00 0.00 0.00 7 1002.0
20260505002813 77 215 5.2 7.0 0.00 0.00 0.00 7 1002.0
20260505002313 78 208 7.0 7.8 0.00 0.00 0.00 7 1002.0
20260505001815 78 206 7.0 7.8 0.00 0.00 0.00 7 1002.0
20260505001316 78 212 7.0 8.7 0.00 0.00 0.00 7 1002.0
20260505000813 79 207 7.0 8.7 0.00 0.00 0.00 7 1002.0
20260505000314 79 209 7.8 8.7 0.00 0.00 0.00 7 1002.0
20260504235813 80 200 7.0 7.8 0.00 0.00 0.00 7 1002.0
20260504234845 80 208 6.1 8.7 0.00 0.00 0.00 7 1002.0
20260504234313 80 208 6.1 7.8 0.00 0.00 0.00 7 1002.0
20260504233813 80 205 6.1 7.8 0.00 0.00 0.00 7 1002.0
20260504233313 81 193 5.2 7.8 0.00 0.00 0.00 7 1002.0
20260504232813 81 208 6.1 8.7 0.00 0.00 0.00 7 1002.0
20260504232314 81 200 7.8 8.7 0.00 0.00 0.00 7 1002.0
20260504231815 81 194 7.0 9.6 0.00 0.00 0.00 7 1002.0
20260504231313 82 189 5.2 8.7 0.00 0.00 0.00 7 1002.0
20260504230813 82 204 5.2 7.8 0.00 0.00 0.00 7 1002.0
20260504230313 82 212 3.5 6.1 0.00 0.00 0.00 7 1002.0
20260504225817 81 202 4.3 5.2 0.00 0.00 0.00 7 1002.0
20260504225314 81 209 7.0 8.7 0.00 0.00 0.00 7 1002.0
20260504224815 81 210 6.1 7.8 0.00 0.00 0.00 7 1002.0
20260504224313 81 219 6.1 8.7 0.00 0.00 0.00 7 1002.0
20260504223813 81 208 7.0 9.6 0.00 0.00 0.00 7 1002.0
20260504223316 81 201 7.0 8.7 0.00 0.00 0.00 7 1002.0
20260504222813 81 196 8.7 11.3 0.00 0.00 0.00 7 1001.0
20260504222313 81 191 7.8 12.2 0.00 0.00 0.00 7 1001.0
20260504221814 81 193 9.6 12.2 0.00 0.00 0.00 7 1001.0
20260504221313 81 202 8.7 10.4 0.00 0.00 0.00 7 1001.0
20260504220813 82 194 9.6 13.9 0.00 0.00 0.00 7 1001.0
20260504220314 82 191 9.6 12.2 0.00 0.00 0.00 7 1001.0
20260504215813 82 208 8.7 13.0 0.00 0.00 0.00 7 1001.0
20260504215313 82 209 7.0 9.6 0.00 0.00 0.00 7 1001.0
20260504214813 82 210 7.0 7.8 0.00 0.00 0.00 7 1002.0
20260504214314 82 199 9.6 13.0 0.00 0.00 0.00 7 1002.0
20260504213814 82 202 10.4 12.2 0.00 0.00 0.00 7 1002.0
20260504213314 83 192 9.6 12.2 0.00 0.00 0.00 7 1002.0
20260504212813 83 183 9.6 12.2 0.00 0.00 0.00 7 1002.0
20260504212314 83 221 7.8 13.0 0.00 0.00 0.00 7 1002.0
20260504211815 83 217 6.1 9.6 0.00 0.00 0.00 7 1002.0
20260504211318 83 209 8.7 10.4 0.00 0.00 0.00 7 1002.0
20260504210813 83 222 5.2 7.8 0.00 0.00 0.00 7 1002.0
20260504210313 83 218 6.1 13.0 0.00 0.00 0.00 7 1002.0
20260504205816 83 237 2.6 4.3 0.00 0.00 0.00 7 1002.0
20260504205313 83 201 8.7 10.4 0.00 0.00 0.00 7 1002.0
20260504204815 83 215 6.1 7.8 0.00 0.00 0.00 7 1002.0
20260504204314 83 197 6.1 7.8 0.00 0.00 0.00 7 1002.0
20260504203813 83 200 7.0 8.7 0.00 0.00 0.00 7 1002.0
20260504203313 83 221 6.1 9.6 0.00 0.00 0.00 7 1002.0
20260504202815 83 208 5.2 7.0 0.00 0.00 0.00 7 1002.0
20260504202315 85 225 5.2 7.0 0.00 0.00 0.00 7 1002.0
20260504201814 85 217 1.7 3.5 0.00 0.00 0.00 7 1002.0
20260504201315 86 249 3.5 7.0 0.00 0.00 0.00 7 1002.0
20260504200816 85 273 2.6 4.3 0.00 0.00 0.00 7 1002.0
20260504200315 83 292 0.9 4.3 0.00 0.00 0.00 7 1002.0
20260504195813 84 204 7.8 9.6 0.00 0.00 0.00 7 1002.0
20260504195315 85 241 1.7 5.2 0.00 0.00 0.00 7 1002.0
20260504194814 85 240 4.3 8.7 0.00 0.00 0.00 7 1002.0
20260504194315 85 302 1.7 5.2 0.00 0.00 0.00 7 1002.0
20260504193815 85 200 3.5 7.0 0.00 0.00 0.00 7 1002.0
20260504193315 86 231 4.3 7.8 0.00 0.00 0.00 7 1002.0
20260504192813 85 207 2.6 4.3 0.00 0.00 0.00 7 1002.0
20260504192314 85 10 1.7 4.3 0.00 0.00 0.00 7 1003.0
20260504191815 85 173 1.7 2.6 0.00 0.00 0.00 7 1003.0
20260504191313 83 251 2.6 6.1 0.00 0.00 0.00 7 1003.0
20260504190814 83 162 5.2 7.0 0.00 0.00 0.00 7 1003.0
20260504190317 85 195 5.2 6.1 0.00 0.00 0.00 7 1003.0
20260504185814 84 166 1.7 2.6 0.00 0.00 0.00 7 1003.0
20260504185316 83 183 1.7 2.6 0.00 0.00 0.00 7 1003.0
20260504184813 84 162 6.1 7.8 0.00 0.00 0.00 7 1003.0
20260504184319 84 205 3.5 5.2 0.00 0.00 0.00 7 1003.0
20260504183815 83 238 1.7 3.5 0.00 0.00 0.00 7 1003.0
20260504183314 82 23 1.7 5.2 0.00 0.00 0.00 7 1003.0
20260504182816 82 230 4.3 7.8 0.00 0.00 0.00 7 1003.0
20260504182314 82 207 2.6 5.2 0.00 0.00 0.00 7 1003.0
20260504181813 82 284 2.6 7.8 0.00 0.00 0.00 7 1003.0
20260504181317 81 265 2.6 6.1 0.00 0.00 0.00 7 1003.0
20260504180814 81 203 5.2 7.8 0.00 0.00 0.00 7 1003.0
20260504180315 81 263 2.6 6.1 0.00 0.00 0.00 7 1003.0
20260504175814 81 219 5.2 7.8 0.00 0.00 0.00 7 1003.0
20260504175314 79 250 3.5 6.1 0.00 0.00 0.00 7 1003.0
20260504174815 79 323 1.7 4.3 0.00 0.00 0.00 7 1003.0
20260504174313 79 210 7.0 9.6 0.00 0.00 0.00 7 1003.0
20260504173815 78 210 6.1 8.7 0.00 0.00 0.00 7 1003.0
20260504173314 79 211 7.8 8.7 0.00 0.00 0.00 7 1003.0
20260504172814 79 227 5.2 8.7 0.00 0.00 0.00 7 1003.0
20260504172313 79 194 7.0 8.7 0.00 0.00 0.00 7 1003.0
20260504171815 80 242 2.6 7.8 0.00 0.00 0.00 7 1003.0
20260504171313 80 241 2.6 7.0 0.00 0.00 0.00 7 1003.0
20260504170817 79 259 3.5 7.8 0.00 0.00 0.00 7 1003.0
20260504170314 79 230 2.6 6.1 0.00 0.00 0.00 7 1003.0
20260504160316 76 186 2.6 6.1 0.00 0.00 0.00 7 1003.0
20260504150813 72 226 7.0 9.6 0.00 0.00 0.00 7 1003.0
20260504150313 72 226 7.0 10.4 0.00 0.00 0.00 7 1003.0
20260504141316 69 241 7.0 8.7 0.00 0.00 0.00 7 1004.0
20260504140814 68 253 6.1 9.6 0.00 0.00 0.00 7 1004.0
20260504140316 68 217 7.8 12.2 0.00 0.00 0.00 7 1004.0
20260504130814 64 208 4.3 7.0 0.00 0.00 0.00 7 1004.0
20260504130313 63 212 6.1 7.8 0.00 0.00 0.00 7 1004.0
20260504120316 59 181 5.2 5.2 0.00 0.00 0.00 7 1003.0
20260504110314 58 186 5.2 7.8 0.00 0.00 0.00 7 1003.0
20260504100315 59 172 7.0 7.0 0.00 0.00 0.00 7 1004.0